Ask Your Question

aeperezt's profile - karma

aeperezt's karma change log

10 0 hard disk drive works a lot ( 2019-03-07 15:46:04 -0500 )

0 10 how to install fedy on fedora 29 ( 2019-03-02 01:18:47 -0500 )

2 0 NVIDIA primusrun works but optirun wont ( 2019-02-23 22:41:00 -0500 )

10 0 install 7zip ( 2019-02-21 14:27:08 -0500 )

10 0 How do I upgrade a package I've just rebuilt from source? ( 2019-02-18 13:12:27 -0500 )

10 0 httpd virtualhost source in /home ( 2019-02-04 01:07:26 -0500 )

10 0 Non-default directory as DocumentRoot for Apache in Fedora ( 2019-02-04 00:27:19 -0500 )

10 0 httpd virtualhost source in /home ( 2019-02-03 20:50:43 -0500 )

10 0 Non-default directory as DocumentRoot for Apache in Fedora ( 2019-02-03 20:49:44 -0500 )

10 0 How to recover GRUB bootloader? ( 2019-01-11 03:03:46 -0500 )

10 0 why is docker repo being ignored for fedora 29 ( 2019-01-09 08:35:19 -0500 )

10 0 Differences between fedora workstation,basic desktop and fedora custom operating system ( 2019-01-08 15:56:26 -0500 )

10 0 I have to re-install NVIDIA driver each time kernel is updated ( 2019-01-06 04:33:21 -0500 )

10 0 Should I update my Fedora 25 Workstation and if so how can I do it ( 2019-01-06 04:20:32 -0500 )

0 10 Should I update my Fedora 25 Workstation and if so how can I do it ( 2019-01-05 09:04:38 -0500 )

15 0 I have to re-install NVIDIA driver each time kernel is updated ( 2019-01-04 02:52:30 -0500 )

10 0 I have to re-install NVIDIA driver each time kernel is updated ( 2019-01-04 00:17:58 -0500 )

10 0 How do I stop/disable NetworkManager connecting to fedoraproject.org every 5 minutes? ( 2019-01-03 17:17:40 -0500 )

2 0 Irc channels want to use how it can be use ? ( 2019-01-02 17:30:04 -0500 )

10 0 Wordpress can't create files, pages or posts if SElinux is enabled, FS 29 ( 2019-01-01 10:54:12 -0500 )

15 0 Wordpress can't create files, pages or posts if SElinux is enabled, FS 29 ( 2019-01-01 10:54:07 -0500 )

10 0 dnf update --nodeps ( 2018-12-26 00:27:29 -0500 )

10 0 how to install fedy on fedora 29 ( 2018-12-19 13:35:22 -0500 )

10 0 Where do I request new packages to be added to the Fedora repos? ( 2018-12-13 21:59:59 -0500 )

10 0 I have installed fedora28 to my computer along with windows 10. I have all my things in windows which I want to use from Fedora28. How can I access the windows part so that I can copy my files into fedora28? ( 2018-11-29 16:10:16 -0500 )

10 0 Cannot change root of nginx installation (Fedora 29) ( 2018-11-28 15:24:57 -0500 )

15 0 Cannot change root of nginx installation (Fedora 29) ( 2018-11-28 14:19:53 -0500 )

10 0 Cannot change root of nginx installation (Fedora 29) ( 2018-11-28 14:19:52 -0500 )

10 0 Fedora 29: is it necessary now to use a malware protection? ( 2018-11-27 15:13:49 -0500 )

10 0 Fedora 29: is it necessary now to use a malware protection? ( 2018-11-27 14:35:14 -0500 )

10 0 I have installed fedora28 to my computer along with windows 10. I have all my things in windows which I want to use from Fedora28. How can I access the windows part so that I can copy my files into fedora28? ( 2018-11-27 14:32:53 -0500 )

15 0 how to configure the computer and apache ( 2018-11-26 05:12:24 -0500 )

0 -15 how to configure the computer and apache ( 2018-11-26 05:12:22 -0500 )

15 0 how to configure the computer and apache ( 2018-11-26 05:12:20 -0500 )

0 10 REaltek 8821ae Wifi driver not found, How to install it sing CMD? ( 2018-11-26 02:58:16 -0500 )

10 0 how to configure the computer and apache ( 2018-11-24 15:49:39 -0500 )

10 0 how to configure the computer and apache ( 2018-11-24 14:11:29 -0500 )

10 0 How to Install "C Development Tools and Libraries" offline without online Fedora ( 2018-11-20 08:33:51 -0500 )

10 0 How to fstab a ntfs partition? ( 2018-11-14 11:46:56 -0500 )

0 -2 Scheduling updates dnf ( 2018-11-12 18:21:40 -0500 )

2 0 Scheduling updates dnf ( 2018-11-12 18:21:40 -0500 )

15 0 RPC: Remote system error and flushing iptables ( 2018-11-11 15:50:45 -0500 )

10 0 RPC: Remote system error and flushing iptables ( 2018-11-11 15:50:44 -0500 )

10 0 F29 Problems with VirtualBox installation and repository ( 2018-11-11 13:32:22 -0500 )

15 0 /dev/mapper/fedora-root is not a mounted XFS filesystem ( 2018-11-10 22:44:45 -0500 )

10 0 /dev/mapper/fedora-root is not a mounted XFS filesystem ( 2018-11-10 20:38:43 -0500 )

10 0 why is docker repo being ignored for fedora 29 ( 2018-11-07 10:43:27 -0500 )

10 0 fedora 28 no wifi adapter found - rtl8723de ( 2018-10-27 20:09:32 -0500 )

15 0 Looking for legacy grub with gpt support ( 2018-10-23 08:07:25 -0500 )

10 0 Looking for legacy grub with gpt support ( 2018-10-20 20:24:09 -0500 )

10 0 How do I install VLC media player? ( 2018-10-10 05:24:18 -0500 )

10 0 How do I install VLC media player? ( 2018-10-10 02:35:45 -0500 )

0 10 I have problem with playing DVDs and CDs in Fedora 27 ( 2018-10-08 14:39:55 -0500 )

10 0 I have problem with playing DVDs and CDs in Fedora 27 ( 2018-10-08 09:25:36 -0500 )

2 0 Is Fedora 28 UEFI secure boot ( 2018-10-03 17:03:37 -0500 )

10 0 DNF history show details ( 2018-10-03 07:12:35 -0500 )

0 -15 Fedora Core 6 Help? ( 2018-09-30 12:14:38 -0500 )

15 0 Fedora Core 6 Help? ( 2018-09-30 12:14:36 -0500 )

2 0 How To get Realtek RTL8111/RTL8168 /RTL8148 wifi driver on fedora 28 ? ( 2018-09-15 16:43:38 -0500 )

10 0 How To get Realtek RTL8111/RTL8168 /RTL8148 wifi driver on fedora 28 ? ( 2018-09-15 11:56:11 -0500 )

0 -10 How To get Realtek RTL8111/RTL8168 /RTL8148 wifi driver on fedora 28 ? ( 2018-09-15 11:56:09 -0500 )

10 0 How To get Realtek RTL8111/RTL8168 /RTL8148 wifi driver on fedora 28 ? ( 2018-09-15 11:56:04 -0500 )

10 0 How to know my CPU temp? ( 2018-09-11 12:54:22 -0500 )

15 0 How to install mod_scgi for Apache Server ( 2018-08-21 11:42:02 -0500 )

10 0 How can I format PC having fedora 28 as an os ?? ( 2018-08-14 21:27:43 -0500 )

10 0 How can I format PC having fedora 28 as an os ?? ( 2018-08-14 15:07:00 -0500 )

10 0 How can I format PC having fedora 28 as an os ?? ( 2018-08-14 13:38:12 -0500 )

10 0 What is the latest x86 Fedora Server version? ( 2018-08-03 14:37:49 -0500 )

10 0 Fedora and SSD ( 2018-07-31 03:35:03 -0500 )

10 0 What is the difference between 32-bit PAE and 64-bit kernels? ( 2018-07-26 05:41:39 -0500 )

10 0 how to change metric of default route ( 2018-07-17 14:15:42 -0500 )

15 0 Access Gnome Boxes VM webserver ( 2018-07-17 07:19:44 -0500 )

10 0 How to know my CPU temp? ( 2018-07-12 06:41:31 -0500 )

10 0 How To get Realtek RTL8111/RTL8168 /RTL8148 wifi driver on fedora 28 ? ( 2018-07-08 15:41:52 -0500 )

10 0 other apps unacceptable? ( 2018-07-02 00:01:38 -0500 )

10 0 other apps unacceptable? ( 2018-06-30 18:05:51 -0500 )

10 0 How To get Realtek RTL8111/RTL8168 /RTL8148 wifi driver on fedora 28 ? ( 2018-06-28 20:55:53 -0500 )

10 0 grace is not working in fedora 28 ( 2018-06-28 07:15:09 -0500 )

0 -1 Red Star OS is closed sourced, why aren't they sued? ( 2018-06-27 16:04:38 -0500 )

2 0 What is NVIDIA and Nouveau? ( 2018-06-25 21:36:58 -0500 )

2 0 hard drive consistently clunking ( 2018-06-25 21:33:01 -0500 )

10 0 How to open a terminal from the anaconda installer? ( 2018-06-25 14:02:39 -0500 )

10 0 How to open a terminal from the anaconda installer? ( 2018-06-25 14:00:35 -0500 )

10 0 How to recover GRUB bootloader? ( 2018-06-24 11:46:23 -0500 )

10 0 Is it even safe to use dnf upgrade in a graphical shell? ( 2018-06-13 18:06:19 -0500 )

10 0 How can I best learn how to use the terminal for Fedora 28? ( 2018-06-12 14:12:11 -0500 )

10 0 grace is not working in fedora 28 ( 2018-06-06 10:24:26 -0500 )

2 0 What packages are included in the installer add-ons? ( 2018-06-05 18:55:05 -0500 )

15 0 Upgrading to 26 instead of 27 ( 2018-06-02 07:40:44 -0500 )

0 -15 Upgrading to 26 instead of 27 ( 2018-06-02 07:40:43 -0500 )

10 0 Upgrading to 26 instead of 27 ( 2018-06-02 03:45:16 -0500 )

2 0 how fix grub-customizer on fedora 28 KDE (spin)? ( 2018-06-01 23:09:15 -0500 )

15 0 Upgrading to 26 instead of 27 ( 2018-06-01 10:40:25 -0500 )

2 0 Fedora upgrade from 26 to 28 ( 2018-05-30 23:52:00 -0500 )

10 0 Do updates shorten the life of a computer? ( 2018-05-30 10:12:50 -0500 )

0 -10 How can I best learn how to use the terminal for Fedora 28? ( 2018-05-29 07:28:52 -0500 )

10 0 How can I best learn how to use the terminal for Fedora 28? ( 2018-05-29 07:28:51 -0500 )

0 -10 How can I best learn how to use the terminal for Fedora 28? ( 2018-05-29 07:16:11 -0500 )

10 0 How can I best learn how to use the terminal for Fedora 28? ( 2018-05-29 07:16:09 -0500 )

10 0 How do I add xfce4 to my Linux login ( 2018-05-27 15:39:52 -0500 )